Tracking 19245 objects as of 18-Aug-2018
HD Live streaming from Space Station
objects crossing your sky now

NOAA 16 DEB

Track NOAA 16 DEB now!
10-day predictions


NORAD ID: 41244
Int'l Code: 2000-055EU
Perigee: 842.0 km
Apogee: 862.9 km
Inclination: 99.0 °
Period: 101.8 minutes
Semi major axis: 7223 km
RCS: Unknown
Launch date: September 21, 2000
Source: United States (US)
Launch site: AIR FORCE WESTERN TEST RANGE (AFWTR)

Note: This is SATELLITE DEBRIS
aabbcc
Your satellite tracking list
Your tracking list is empty




NASA's NSSDC Master Catalog

Two Line Element Set (TLE):
1 41244U 00055EU  18228.21209269  .00000565  00000-0  32031-3 0  9995
2 41244  98.9664 314.1328 0014442 238.7604 121.2154 14.14124867134884
Source of the keplerian elements: AFSPC